Theta_e
316 316 317 318 319 319 320 320 321 322 322 322 323 322 323 322 323 323 324 324 324 325 326 325 326 326 326 326 325 322 318 302 302 300 298 301 311 322 321 323 324 324 322 313 305 302 298 297 297 298 297 294 296 296 296 297 294 289 287 281 279 280 283 283 286 285 287 288 287 291 289 290 289 290 293 294 293 292 291 292 293 295 295 296 295 296 296 297
317 317 318 319 319 319 320 321 321 321 321 322 322 322 323 323 323 323 323 324 324 325 326 325 325 325 325 325 323 323 309 304 301 299 301 311 322 325 324 324 324 322 317 302 303 302 297 296 296 296 294 292 295 296 299 296 294 290 283 283 282 279 284 287 287 287 288 287 288 289 289 290 291 290 292 291 288 289 291 291 292 293 296 296 294 295 296 296
317 318 318 318 319 319 320 320 321 321 321 321 322 322 323 323 323 323 324 324 324 325 325 325 325 324 324 324 322 322 307 303 298 295 300 322 323 326 327 324 323 322 305 304 303 305 302 300 297 295 292 292 289 294 295 293 295 289 288 282 280 284 285 287 288 290 290 289 289 289 290 289 289 291 292 289 288 287 288 290 289 292 294 296 293 293 294 295
316 317 318 318 318 319 319 320 320 320 321 321 321 322 323 323 323 324 324 324 325 325 325 325 325 324 324 322 322 312 304 298 295 297 302 318 322 325 326 327 323 315 307 305 305 306 304 301 297 295 293 291 289 292 293 293 291 290 287 283 283 285 287 287 288 289 289 289 289 289 289 288 289 290 291 288 288 288 289 291 292 292 293 296 294 293 293 294
316 316 317 318 318 318 319 319 320 320 320 322 322 322 323 323 323 323 324 324 325 325 325 325 325 322 320 320 319 309 298 292 294 301 303 319 323 324 322 323 322 305 307 306 306 303 301 296 296 293 292 288 288 289 290 290 291 289 286 284 287 286 287 287 289 289 289 288 288 287 289 288 289 290 290 289 288 289 290 292 293 294 295 294 294 293 294 294
316 316 317 317 317 318 318 318 319 320 320 321 321 322 322 323 323 323 324 324 325 325 325 325 324 321 322 319 306 306 300 282 297 299 316 319 321 321 321 321 321 306 306 303 301 299 295 293 292 289 288 289 288 288 288 290 293 288 284 287 286 286 288 288 289 289 288 289 288 287 288 290 289 288 287 290 291 294 295 292 294 294 295 295 295 294 293 293
315 315 316 316 316 317 317 318 319 319 320 321 322 322 322 323 323 324 324 325 325 325 324 324 322 321 317 315 306 296 293 294 297 303 313 318 319 317 318 318 315 306 303 299 298 297 292 291 291 289 288 287 286 288 291 293 292 289 286 286 289 286 288 288 289 288 287 288 287 289 290 289 288 287 288 288 293 295 297 293 294 295 295 295 293 293 293 293
315 315 315 315 316 316 316 317 318 319 320 321 322 322 323 323 323 324 325 325 325 324 324 324 323 320 316 305 301 291 290 293 299 301 311 315 307 305 309 305 303 301 299 298 298 296 295 291 291 293 289 289 290 291 293 290 290 290 287 289 289 288 286 287 286 286 287 288 288 288 287 288 288 288 288 291 294 295 295 294 294 295 294 293 293 293 293 293
315 315 315 315 315 315 316 317 318 319 320 321 321 322 324 323 323 324 325 325 325 325 324 324 322 320 317 301 297 293 290 296 303 306 302 301 301 302 301 303 302 300 300 297 297 297 296 292 293 293 289 289 292 292 290 289 284 290 289 289 289 290 289 287 287 287 287 289 288 288 288 287 288 288 287 292 293 295 293 292 293 293 293 294 294 295 294 293
314 314 315 314 314 315 316 317 318 319 320 321 322 323 324 324 323 323 323 323 323 323 323 323 322 320 308 300 293 288 294 299 301 302 301 299 301 302 300 301 300 299 298 296 297 297 295 295 296 296 293 292 293 292 290 289 286 291 289 289 289 290 289 289 288 286 287 288 287 288 288 287 287 288 286 289 292 292 291 291 291 291 292 294 294 295 295 295
314 314 314 314 314 315 316 318 318 319 319 321 322 323 324 324 323 323 324 323 324 324 323 324 322 313 298 297 289 287 301 302 301 300 301 300 301 301 300 300 300 299 298 295 296 298 298 297 296 300 296 290 294 290 290 291 293 291 289 288 286 287 289 289 287 288 287 288 286 287 287 287 286 287 287 293 294 292 290 291 291 290 291 292 293 294 295 294
314 314 314 314 315 315 317 318 318 318 319 321 323 324 324 323 322 323 323 323 324 322 321 323 319 303 297 294 292 295 302 303 302 300 301 301 302 303 303 302 301 301 299 296 296 297 298 298 300 296 289 296 290 292 292 292 292 291 289 287 286 288 288 287 288 287 288 287 289 287 286 284 284 285 290 293 293 290 289 290 291 291 291 291 292 292 293 294
314 314 314 314 315 316 317 318 318 320 321 322 324 324 322 321 321 321 323 321 324 322 322 320 315 305 298 293 297 301 300 301 301 301 301 302 301 302 302 301 301 301 301 299 298 301 299 298 297 294 295 293 291 288 291 293 291 292 287 286 286 285 284 288 288 287 288 288 288 287 281 283 283 287 290 292 290 289 288 289 290 291 291 291 291 292 292 293
314 314 314 315 316 317 317 318 319 321 321 322 323 322 320 320 320 320 321 319 320 321 320 322 305 299 295 292 298 303 304 301 302 302 300 301 302 302 301 302 301 299 302 299 299 298 301 299 296 296 296 291 290 296 293 288 288 287 287 283 278 279 279 285 287 286 286 289 286 287 281 284 288 291 291 289 289 288 289 291 291 291 291 291 291 291 292 293
313 314 314 315 316 317 318 318 319 320 321 320 320 319 320 319 319 319 322 319 319 321 320 319 309 302 293 295 301 302 315 302 300 300 299 301 299 300 300 300 302 299 298 300 302 298 300 300 297 293 291 294 293 289 283 283 283 283 280 276 277 277 280 286 288 286 286 287 288 287 278 281 287 290 293 290 289 289 291 292 292 292 292 291 291 291 291 292
313 314 315 315 316 316 316 317 318 319 320 319 319 319 320 320 320 320 320 319 320 317 310 304 302 297 292 292 299 310 300 297 299 301 299 301 300 299 298 299 299 297 299 300 299 299 299 297 293 291 290 291 288 282 278 277 276 278 280 274 277 278 279 283 285 287 287 287 287 287 284 284 287 292 293 294 292 290 290 290 291 291 291 291 291 291 292 292
313 314 315 315 316 316 316 317 318 319 320 319 319 318 318 318 319 320 319 318 311 314 307 301 301 300 292 297 303 296 294 296 300 300 300 302 301 299 300 297 298 297 297 296 298 298 297 296 294 293 289 287 285 280 277 272 275 276 277 278 278 277 280 280 284 285 286 287 284 285 282 284 288 291 292 293 291 290 288 289 290 290 290 290 289 290 290 291
313 314 315 315 316 316 317 317 318 318 319 318 318 317 312 318 319 313 309 310 311 307 306 305 300 296 291 295 292 294 297 296 299 299 298 300 300 300 300 298 296 296 294 295 297 294 296 292 290 286 283 284 284 282 280 274 277 278 278 277 279 278 279 280 281 284 288 286 284 283 282 284 287 289 290 291 290 289 289 289 289 289 289 289 289 289 289 289
314 314 315 315 316 316 317 317 318 319 318 317 320 321 320 317 306 302 302 301 298 293 289 292 293 284 285 292 293 295 297 299 300 299 299 299 298 299 300 299 297 295 292 289 293 294 291 286 286 280 280 282 282 281 279 282 281 281 280 280 279 277 279 280 283 285 286 283 283 282 282 285 286 287 289 290 291 288 288 288 287 287 286 287 287 287 287 287
314 314 315 315 315 316 316 318 318 318 318 308 307 305 300 298 293 293 296 300 293 294 293 295 296 295 294 292 295 299 300 301 298 297 298 298 299 297 298 297 294 293 290 288 287 291 287 282 278 278 281 282 282 283 283 282 283 283 281 279 280 279 279 282 283 285 285 283 280 282 282 283 284 286 288 289 289 288 288 288 287 287 286 286 286 287 287 287
313 314 314 314 315 316 317 318 318 317 318 307 303 299 294 294 288 289 290 295 294 296 296 296 295 294 295 295 295 297 294 295 295 296 297 301 298 297 294 294 289 290 289 289 289 291 287 282 281 281 283 284 284 283 283 284 283 284 281 278 279 278 278 283 283 284 284 283 280 281 282 284 286 287 287 287 286 287 286 286 287 287 286 287 285 286 286 287
313 314 314 314 315 316 317 318 317 318 314 303 300 298 297 298 300 297 294 289 295 295 294 294 294 294 294 296 297 297 294 293 297 297 299 300 296 295 293 290 287 287 288 288 284 283 282 281 284 284 284 284 284 284 284 283 283 280 280 278 275 279 280 283 282 283 285 282 279 280 281 284 286 286 286 285 284 284 286 285 286 286 286 286 285 285 285 286
313 313 314 315 315 316 318 317 316 316 302 300 299 297 298 303 302 301 299 290 292 297 293 292 293 291 293 296 297 297 293 291 289 296 297 297 295 293 290 289 286 286 287 288 285 280 282 281 285 285 285 285 284 281 281 280 281 278 278 277 276 279 278 277 282 282 285 282 279 280 280 283 282 284 284 284 284 284 285 285 286 286 285 286 286 286 286 285
313 313 314 314 316 315 317 316 315 303 299 299 297 299 301 300 302 301 297 289 291 294 296 296 294 292 292 294 297 298 293 293 291 295 297 296 292 293 289 290 285 284 285 284 284 285 283 287 287 284 281 285 284 281 281 279 279 279 278 277 276 279 280 279 281 282 282 279 280 282 282 279 276 280 285 287 284 284 285 285 284 284 285 285 285 285 286 286
313 313 314 315 315 316 315 314 305 300 300 300 298 301 299 299 299 303 295 288 284 289 298 298 296 294 296 301 299 299 295 294 293 293 293 295 294 290 289 291 285 283 283 284 281 281 282 287 287 284 282 280 281 281 281 280 279 277 277 281 281 280 279 280 280 279 278 277 280 282 271 273 274 280 281 284 283 283 283 283 284 285 284 283 284 285 286 286
312 313 314 316 316 315 317 304 301 300 299 298 301 302 299 299 300 303 288 276 275 286 292 289 299 293 299 294 296 295 294 290 294 296 297 297 297 294 288 284 288 284 284 284 284 283 285 285 284 285 281 280 280 281 282 280 277 274 281 279 281 280 279 279 278 278 273 273 277 281 273 273 277 280 281 280 281 282 283 281 283 284 284 284 284 285 285 286
313 314 314 315 316 316 304 298 300 302 299 303 299 297 296 299 301 302 290 274 275 287 287 294 295 294 301 294 294 293 280 285 292 296 297 298 294 298 286 282 283 285 288 283 278 279 285 283 282 280 280 280 279 281 281 281 276 276 278 280 280 279 279 279 278 277 276 277 279 279 274 272 272 280 280 278 278 280 280 281 282 283 284 284 284 285 285 286
314 315 315 316 314 312 305 303 302 304 302 306 299 297 297 298 299 298 282 269 271 291 285 288 296 298 296 294 293 289 290 290 287 292 297 298 293 291 287 284 284 284 286 278 275 280 284 283 282 282 279 281 280 282 283 282 280 280 279 281 281 280 280 278 276 276 275 275 273 274 278 273 268 276 281 278 280 280 280 281 282 282 283 285 285 286 285 285
314 315 315 315 314 314 306 304 302 302 302 298 296 298 300 298 296 288 275 272 282 288 298 292 303 294 291 293 289 288 290 292 288 291 295 293 295 291 284 285 286 283 283 283 280 279 283 285 284 283 280 281 283 282 282 281 281 281 280 279 279 278 279 279 274 275 272 272 266 273 277 272 272 277 279 276 278 278 280 282 282 283 283 285 286 286 285 285
316 315 315 312 311 307 300 299 297 299 298 295 297 298 301 296 291 278 271 271 285 280 290 290 290 287 285 286 283 287 288 288 289 289 291 287 291 292 289 288 284 280 279 281 281 283 283 287 288 284 283 285 284 284 281 281 283 283 280 280 278 275 275 276 274 272 265 263 267 274 278 275 268 275 278 278 281 281 281 282 282 282 283 284 285 285 285 285
315 314 312 312 302 303 302 300 300 296 295 296 298 302 293 283 277 269 268 276 288 284 286 284 283 286 283 283 281 285 285 283 288 286 286 287 287 287 287 283 282 277 274 280 282 282 280 284 285 284 288 284 285 283 281 282 282 281 278 277 277 276 273 272 270 269 265 267 272 273 275 274 267 271 275 277 277 278 280 281 282 282 283 284 285 285 285 284
314 314 314 303 303 303 300 298 302 295 297 298 299 290 286 278 282 276 274 288 279 281 281 280 281 281 282 280 281 283 281 282 283 284 282 280 280 283 282 279 278 275 275 276 278 279 278 281 283 282 286 285 281 281 279 279 279 282 278 279 274 266 267 268 267 268 263 267 275 273 276 273 273 275 280 283 282 282 281 282 283 283 283 285 286 286 285 285
313 312 311 305 301 296 299 298 296 298 297 299 290 285 281 274 271 272 273 278 279 284 282 284 282 282 281 279 280 281 282 282 283 283 284 281 280 279 280 282 280 276 274 275 275 275 276 277 280 281 285 286 283 278 278 279 278 280 278 271 265 262 258 261 261 261 262 273 275 276 275 273 275 277 278 279 282 283 282 282 282 282 283 283 284 285 285 285
312 311 302 304 300 302 301 298 298 299 298 293 291 286 282 276 271 284 273 276 280 280 281 281 281 278 279 280 282 281 279 282 282 282 281 279 278 278 278 280 280 279 276 275 275 273 270 272 276 281 279 282 284 282 282 280 279 278 277 278 270 265 266 264 259 264 268 271 276 278 271 263 269 276 279 282 282 283 284 284 284 284 285 284 285 285 286 286
310 304 302 301 298 302 297 299 299 300 292 293 287 280 276 269 270 273 272 276 277 280 282 280 280 277 279 278 280 281 282 278 282 279 279 279 278 276 279 278 281 279 278 273 272 272 277 273 279 281 282 283 282 283 283 283 277 276 278 277 274 271 272 268 265 262 263 268 271 269 271 270 278 279 283 282 282 283 284 284 284 284 284 284 284 284 285 285
307 303 298 298 299 301 297 300 296 297 289 289 285 278 274 272 273 277 276 283 281 280 281 278 277 278 274 276 277 278 281 280 281 278 276 278 280 279 280 278 281 281 277 273 270 272 272 273 276 282 282 282 283 282 281 282 272 277 279 272 276 278 278 269 273 274 272 267 268 269 274 276 277 280 279 280 279 280 282 283 283 282 282 282 283 283 284 284
298 296 299 298 299 302 300 300 299 293 295 289 285 275 273 277 280 278 286 282 281 282 276 274 276 278 275 274 276 275 280 279 276 278 277 279 278 280 279 279 283 281 281 280 273 274 272 275 280 279 282 281 281 282 283 284 282 277 272 276 278 279 276 272 267 263 263 263 268 269 271 274 273 270 278 276 276 277 279 281 281 281 281 281 282 282 283 284
299 296 295 297 298 300 299 298 295 290 287 289 281 285 279 280 283 282 281 281 282 281 276 276 276 280 274 276 275 276 280 277 280 278 277 278 279 282 280 280 281 282 281 280 277 275 277 270 276 277 279 281 280 281 279 281 283 282 280 280 279 268 268 270 265 263 263 262 266 270 273 270 269 269 273 273 273 275 277 279 280 280 280 280 281 282 283 283
293 290 290 297 300 301 301 293 295 291 290 283 275 283 283 280 282 282 281 282 281 280 277 279 276 279 279 274 276 275 275 275 276 277 274 278 275 280 280 281 280 281 279 282 280 276 278 270 274 277 280 281 277 276 276 274 277 281 282 281 279 277 271 268 270 264 265 267 262 265 268 267 271 271 273 273 275 275 276 277 278 279 280 280 281 281 282 282
297 285 287 297 301 300 301 296 296 289 285 282 276 278 281 283 284 283 281 284 282 279 279 279 280 274 277 279 278 277 277 278 278 277 278 280 278 280 280 282 280 282 280 279 279 281 275 277 267 276 277 277 277 277 277 277 275 275 273 272 273 273 276 275 271 271 270 265 261 261 265 269 271 275 274 274 275 276 276 276 277 278 280 281 281 281 282 282
287 285 288 297 300 299 296 297 287 282 280 280 279 281 282 283 284 285 282 282 282 285 283 282 279 278 279 277 276 279 279 276 277 276 279 277 278 275 281 281 281 281 279 278 277 277 272 273 270 275 277 276 278 278 277 279 278 278 276 273 276 270 273 268 270 269 268 269 264 262 268 269 273 278 276 276 277 277 278 278 277 278 280 280 281 281 282 282
284 280 287 300 298 296 295 286 278 278 279 276 280 283 284 291 283 282 281 282 283 283 283 281 281 280 278 280 280 278 280 276 277 276 278 277 280 279 280 279 280 282 279 277 278 280 280 276 275 272 276 279 281 283 280 281 281 279 278 277 275 274 269 269 268 269 266 269 263 268 266 268 274 276 277 277 277 278 278 278 278 278 279 280 281 282 282 282
284 288 297 298 296 294 291 280 280 281 277 282 284 282 282 283 281 283 283 283 283 284 283 283 283 281 281 283 280 280 280 274 278 278 279 278 277 278 279 278 281 280 281 274 277 280 285 269 266 274 277 279 280 281 278 277 280 279 278 277 278 275 275 273 273 272 269 272 270 266 266 268 274 277 277 277 278 278 278 278 278 278 279 280 280 281 282 282
286 289 292 299 296 292 288 280 277 277 279 284 282 282 284 283 282 282 281 281 283 281 282 281 282 283 283 281 280 282 281 274 280 278 278 278 279 281 279 280 281 281 279 279 276 280 273 272 273 268 269 276 279 277 279 278 279 278 276 276 276 277 273 269 269 266 268 274 273 270 267 268 276 278 278 277 277 276 277 278 279 278 279 279 280 281 282 282
285 283 284 291 296 293 282 277 283 280 278 279 279 280 280 281 282 284 283 283 283 281 281 282 283 283 282 282 281 281 281 280 277 278 277 275 278 279 276 276 278 281 281 282 285 280 275 275 272 267 266 267 267 268 271 275 277 279 279 280 280 273 271 271 270 268 269 270 272 265 265 273 276 277 276 276 276 276 277 278 279 279 279 279 280 280 281 281
284 283 283 286 289 287 282 280 280 279 277 274 278 280 279 280 283 282 283 284 283 283 282 283 282 282 280 279 279 278 280 281 280 275 273 277 274 277 279 274 278 281 284 284 282 281 273 274 275 274 270 270 274 277 281 280 278 276 278 278 277 278 272 271 270 268 268 268 269 270 270 270 272 273 273 274 275 275 276 277 277 278 279 279 280 280 280 281
283 285 278 282 282 285 279 280 281 279 280 279 277 280 276 280 280 283 285 283 284 283 283 281 281 280 279 279 279 278 278 280 278 278 274 275 273 276 277 279 279 281 285 282 281 276 270 270 275 277 277 278 279 279 281 280 277 278 276 275 275 275 273 271 268 268 274 270 268 272 271 269 271 272 273 274 275 276 276 277 277 278 278 279 279 280 281 280
284 283 284 288 285 281 279 282 281 283 281 279 279 281 278 277 279 275 281 283 283 282 283 281 280 281 280 281 281 275 279 278 275 273 273 272 273 279 279 279 279 282 283 280 279 277 272 270 271 270 272 277 278 278 279 278 278 277 274 274 273 273 273 270 271 273 272 267 266 270 272 270 272 273 274 275 276 276 276 277 278 279 279 279 279 279 279 279
284 283 284 285 282 281 280 284 281 282 283 279 280 282 279 277 278 281 280 281 279 280 281 277 279 280 279 278 280 277 278 271 272 271 271 273 272 276 271 274 281 280 280 279 280 273 274 269 268 267 274 277 277 277 278 277 276 275 273 274 275 274 273 273 272 273 273 270 272 272 271 271 273 274 275 276 278 278 278 278 278 278 277 277 277 278 278 278
285 283 286 281 281 280 281 280 279 281 283 281 277 282 280 280 280 281 281 280 275 279 280 279 280 281 279 279 280 278 279 280 279 274 274 274 278 273 271 274 275 276 278 278 276 277 275 272 276 269 272 276 278 277 275 275 274 272 274 274 275 275 274 274 273 273 273 272 273 272 271 270 275 277 277 278 278 278 277 276 276 276 276 276 277 277 277 277
285 279 287 287 283 282 280 277 279 280 278 282 278 281 281 280 282 282 282 283 282 281 281 280 280 280 279 278 279 281 281 281 281 282 281 280 277 277 276 275 279 276 276 272 271 271 272 270 270 268 272 274 278 277 278 278 275 271 272 272 273 272 269 271 270 273 271 269 271 270 268 269 274 277 277 277 277 276 275 275 275 275 276 276 276 276 277 277
284 286 284 284 280 282 279 278 277 279 278 280 283 283 283 284 282 282 282 283 280 283 282 282 281 281 278 278 280 281 281 281 282 282 281 281 281 281 280 279 278 275 273 270 269 272 268 267 270 266 271 273 277 278 277 276 274 267 269 271 272 273 273 273 274 276 274 274 269 267 268 274 275 276 274 274 275 275 275 275 275 276 276 276 276 276 277 277
Wind_Speed
7 7 7 7 8 9 10 10 10 11 11 11 11 12 13 12 12 12 11 11 10 10 10 10 10 10 9 8 7 9 8 2 4 4 6 3 5 9 11 10 10 11 9 4 5 5 5 5 7 8 8 3 1 0 1 1 1 2 1 1 4 5 2 4 4 3 1 1 3 2 4 5 6 1 3 1 3 4 4 4 4 4 7 3 3 1 2 6
7 7 8 8 9 10 10 11 11 10 11 11 11 11 11 11 12 13 13 13 12 12 11 10 9 9 9 7 6 7 3 1 2 3 1 5 6 7 9 9 8 8 7 1 5 3 4 7 5 6 5 3 0 0 0 0 1 2 1 1 9 4 6 3 2 3 0 5 3 3 3 6 9 3 1 1 4 3 6 6 2 7 10 6 2 0 5 9
7 8 8 9 9 10 11 11 11 11 11 10 10 11 10 11 11 11 12 12 11 10 9 8 8 8 8 5 3 4 1 2 1 3 3 2 6 8 7 7 4 4 2 1 1 0 0 2 2 4 2 1 2 0 1 1 1 2 2 4 6 6 3 3 3 3 4 2 4 4 4 6 4 4 0 3 7 2 8 9 3 9 16 13 5 4 5 10
7 8 9 9 10 10 10 11 11 11 11 11 11 11 11 11 11 11 11 11 9 8 7 6 6 7 6 6 4 2 2 2 2 3 3 5 6 8 6 6 3 1 1 1 2 0 1 0 1 1 1 1 3 2 1 1 1 1 1 3 3 1 1 2 4 4 4 3 2 3 1 2 5 5 3 2 2 9 12 11 13 14 16 16 8 8 7 10
8 8 9 10 10 10 10 11 11 11 11 11 12 11 11 11 11 11 10 10 8 6 5 5 5 6 5 4 5 0 2 2 1 2 5 9 8 7 5 4 4 0 0 1 0 1 1 2 2 2 1 2 2 2 0 2 1 1 5 3 2 0 2 6 4 6 2 4 2 2 1 5 0 1 5 4 8 12 8 11 12 14 13 11 8 11 9 11
8 8 9 9 9 10 10 10 11 11 11 12 12 12 11 11 11 10 10 9 7 5 4 3 3 4 2 3 2 2 2 1 1 4 8 11 12 11 9 4 3 2 1 2 2 3 7 6 4 2 2 0 1 1 2 1 0 2 3 2 3 3 3 1 2 3 2 1 2 1 4 1 1 3 3 7 15 16 9 4 10 13 14 13 8 6 9 11
8 8 9 9 9 9 10 10 11 11 12 12 12 12 12 11 11 10 9 8 6 2 0 1 1 1 1 1 1 8 5 1 1 8 9 10 12 11 9 3 5 1 2 5 5 4 1 4 2 1 1 2 3 0 1 2 2 2 5 0 4 2 5 5 4 3 3 4 5 4 2 3 1 5 1 5 16 18 14 5 6 9 10 7 6 8 14 14
7 8 8 8 8 9 10 10 11 12 12 12 12 13 11 10 9 9 7 6 3 3 2 2 1 2 2 1 1 3 3 1 6 6 8 10 10 10 5 1 5 2 4 3 2 2 1 3 2 0 1 0 1 0 1 4 0 1 3 1 3 2 4 4 5 4 5 7 6 4 4 6 3 4 5 14 18 14 13 6 9 8 6 5 7 9 10 12
7 8 8 8 8 9 9 10 11 12 12 12 12 12 11 8 8 7 6 4 4 4 2 3 1 1 4 2 3 2 2 3 6 8 7 8 9 9 7 3 3 4 0 3 3 0 0 1 1 1 1 1 0 1 3 3 5 0 2 2 4 5 6 6 5 6 7 4 1 3 7 6 5 6 7 20 19 16 4 7 10 8 9 11 11 10 9 11
7 8 8 8 8 9 10 11 11 12 12 12 12 11 10 7 6 6 5 3 1 2 3 3 3 5 2 3 3 6 2 7 6 4 5 6 8 8 8 3 3 4 4 3 4 5 2 0 1 2 1 0 0 0 0 1 2 1 4 4 6 8 7 4 5 3 1 2 1 3 8 5 3 3 10 5 10 3 4 6 6 6 10 13 12 12 11 11
7 7 8 8 8 10 10 11 12 12 13 13 12 11 10 9 6 6 4 3 1 3 5 5 5 2 2 2 5 2 4 2 1 4 6 5 7 7 4 6 2 3 2 2 3 1 1 1 2 0 1 0 2 2 1 1 0 3 3 5 4 8 5 4 5 8 2 4 1 5 9 5 3 1 11 15 12 2 6 11 9 6 9 11 12 12 11 10
8 7 8 8 9 10 11 12 12 12 12 12 11 10 9 9 6 4 4 3 2 4 5 5 5 2 4 7 7 1 2 3 3 4 4 3 4 3 4 2 1 2 3 3 2 1 0 0 2 1 0 1 2 0 1 1 0 1 3 6 9 9 9 4 5 4 1 3 0 2 7 3 1 6 14 15 9 6 5 10 14 11 11 11 11 9 8 11
8 8 8 9 10 11 11 12 12 12 12 11 10 9 8 9 7 4 3 2 3 5 6 7 3 4 2 5 1 5 3 3 4 7 4 1 3 2 0 0 1 2 3 3 1 0 1 2 2 5 0 1 1 1 1 1 2 0 2 2 7 9 8 2 4 2 0 2 1 3 8 9 7 14 14 11 8 7 8 10 11 10 9 10 9 9 9 9
8 8 8 9 11 11 11 11 12 12 11 10 8 8 6 7 8 7 4 5 3 5 5 5 3 5 3 0 6 5 3 1 3 5 5 4 5 7 5 5 1 1 1 1 2 2 1 2 7 4 1 4 1 1 2 4 4 4 2 3 2 7 7 6 5 5 3 1 2 3 3 11 16 20 9 6 5 4 9 14 13 12 11 9 7 8 10 11
7 8 8 9 10 11 11 11 12 11 9 10 10 10 8 7 7 7 6 5 5 3 4 5 1 2 3 1 4 6 4 1 5 4 3 6 3 6 6 7 8 6 1 1 0 1 1 3 4 3 1 0 2 2 5 3 4 4 6 6 4 3 9 15 7 2 2 2 2 3 4 9 16 20 20 2 1 5 15 18 15 13 11 9 7 8 9 12
7 8 9 9 10 10 11 11 10 9 10 12 12 12 9 7 7 5 5 4 5 3 2 1 2 5 5 2 1 1 2 3 5 4 2 1 1 3 3 5 4 3 4 2 2 1 3 5 6 1 3 7 9 3 4 7 5 6 5 4 6 3 6 12 1 2 4 2 3 1 7 9 12 17 20 18 10 8 11 15 14 13 11 8 7 8 8 9
8 8 9 9 9 10 10 10 9 8 9 13 13 8 5 4 7 7 3 1 2 1 1 0 1 1 3 3 1 4 2 3 3 2 6 0 2 2 4 4 2 6 5 2 2 2 2 5 1 2 4 5 3 1 7 6 6 4 2 1 2 3 7 7 7 3 4 0 4 0 1 10 16 20 21 20 13 11 9 11 13 11 8 7 6 7 8 8
8 8 8 9 9 9 9 8 9 8 11 13 8 6 6 8 10 8 5 5 1 3 3 2 3 2 1 5 3 5 3 5 7 6 5 7 1 1 1 1 1 4 3 3 3 6 3 4 2 1 4 5 6 9 11 5 2 4 5 6 7 4 5 7 9 7 10 3 3 2 4 15 16 18 18 15 7 10 11 8 8 9 8 9 8 6 5 6
7 8 8 9 8 8 7 7 6 9 11 13 6 2 3 3 3 4 6 5 5 3 4 7 7 4 1 6 6 6 5 5 4 1 9 9 3 1 0 0 1 5 4 4 2 6 4 3 6 6 9 9 7 3 4 1 1 4 3 4 4 6 9 10 6 4 5 9 9 2 8 14 17 17 18 16 14 11 8 5 3 4 4 4 5 5 4 4
7 8 8 8 8 7 6 6 7 8 10 7 6 3 4 3 4 3 7 8 5 5 2 1 0 1 2 5 6 8 3 3 4 3 5 2 2 2 2 2 4 7 5 3 5 2 2 9 6 3 4 4 4 3 3 2 3 1 1 1 8 6 8 7 6 4 3 7 4 5 6 11 15 14 13 12 12 10 13 12 7 5 4 4 4 5 4 4
7 8 8 9 8 7 6 6 7 9 6 3 3 5 2 1 2 3 1 1 1 1 1 0 1 1 0 1 4 5 4 4 2 5 6 7 1 1 5 6 6 9 6 3 1 2 7 9 8 3 3 3 5 3 1 1 1 2 4 3 8 4 9 9 4 3 4 5 6 1 8 15 12 11 10 8 7 11 11 11 8 6 4 5 5 6 6 4
6 7 8 8 8 7 6 7 9 9 5 3 5 5 1 1 0 0 1 2 3 4 4 2 2 3 3 2 3 2 2 6 18 16 7 9 8 7 5 6 2 3 5 6 4 7 8 8 4 5 3 3 2 1 0 1 1 0 1 5 4 7 6 10 3 3 6 3 8 6 10 14 14 12 11 6 5 4 7 5 4 3 4 3 3 3 3 5
6 6 6 7 6 6 6 8 9 6 3 5 5 4 2 1 3 2 1 3 2 1 3 3 5 4 4 3 1 4 7 8 3 11 11 7 7 4 1 4 6 1 2 7 8 4 7 3 4 3 1 3 1 3 5 4 1 1 5 6 7 4 7 11 3 5 16 0 4 5 9 11 8 8 4 3 3 2 4 5 4 3 1 2 1 1 2 4
6 6 6 6 5 7 8 8 5 5 4 4 5 3 0 3 3 1 2 1 1 3 1 0 1 1 3 4 3 5 2 2 1 13 6 5 5 2 2 3 5 6 7 4 5 10 3 1 0 2 4 1 1 1 5 6 10 4 2 1 3 7 5 4 10 11 8 4 2 8 10 6 3 6 9 8 7 6 3 7 5 5 3 4 3 3 2 2
6 6 6 6 5 7 7 6 6 1 2 3 2 1 2 3 2 2 2 1 5 4 2 0 2 2 2 1 3 1 0 1 1 3 3 5 8 3 1 0 2 5 4 0 3 6 2 1 0 1 3 4 5 6 4 4 9 8 3 2 4 5 6 6 7 9 7 5 2 6 4 7 3 7 5 9 9 9 6 6 6 6 6 4 3 3 3 3
6 6 5 5 6 7 7 4 0 1 2 1 1 0 3 2 4 0 4 5 3 3 5 6 0 3 1 4 4 2 1 3 2 3 0 3 3 1 2 4 2 6 5 2 1 2 1 2 4 1 2 5 5 1 1 2 3 3 6 4 4 5 4 6 7 3 6 4 4 3 3 8 5 8 3 3 9 11 9 5 6 6 6 5 5 4 4 3
5 5 5 4 5 8 2 0 0 3 1 1 2 2 2 1 1 4 2 4 6 2 3 3 2 2 2 3 5 1 5 4 4 4 6 5 3 1 6 4 4 1 1 0 3 3 3 6 6 4 6 5 6 8 1 1 2 3 2 0 5 6 7 6 2 2 4 2 5 2 2 2 9 10 3 3 4 8 8 8 7 7 7 7 6 6 6 5
5 5 4 3 5 7 0 1 0 0 1 1 0 3 3 2 1 1 4 3 3 2 3 5 1 2 6 8 7 6 2 5 3 3 5 7 2 4 8 3 2 3 4 4 4 4 1 5 3 4 4 5 6 4 5 0 1 5 4 1 8 6 6 3 2 2 2 1 6 1 1 1 4 9 9 5 8 7 7 7 8 8 7 7 8 8 7 6
5 3 1 2 7 9 5 2 3 1 2 1 1 2 2 1 4 6 4 6 2 1 3 1 2 4 9 8 8 3 2 3 1 2 8 5 8 2 6 4 0 1 2 5 4 3 2 1 2 1 2 3 5 5 2 5 1 5 3 4 3 1 1 2 1 0 3 1 4 1 1 1 9 8 10 1 1 6 7 10 10 9 8 9 9 8 8 7
4 2 1 2 3 2 2 3 2 1 0 1 1 2 1 2 3 3 5 5 1 4 2 3 4 7 3 6 4 9 8 3 1 4 5 4 14 9 2 3 5 2 4 5 4 2 3 4 2 3 1 1 3 7 2 4 4 6 3 5 3 2 4 1 3 3 2 2 6 2 0 3 6 8 9 4 4 1 7 9 8 8 8 8 8 8 7 7
3 3 2 4 2 1 1 1 2 3 3 1 1 1 4 7 6 5 5 1 1 2 4 4 4 4 7 8 7 6 2 2 8 4 7 3 10 3 1 3 4 5 3 7 7 10 5 1 0 2 1 3 1 5 1 1 2 3 5 4 7 7 6 3 5 4 2 9 5 4 2 4 3 8 7 6 5 5 6 11 12 11 10 10 9 9 10 10
4 5 6 4 2 1 2 1 1 3 3 2 2 5 2 3 9 10 0 4 1 4 2 4 2 1 4 1 5 7 4 6 3 4 5 6 7 16 13 9 7 10 10 8 11 8 4 1 1 7 2 2 2 0 7 3 4 10 7 9 9 7 7 10 7 10 2 7 5 3 2 5 7 8 9 11 10 11 9 6 11 11 15 16 17 19 15 13
8 11 10 6 2 2 0 1 4 4 2 2 5 7 10 8 4 2 2 4 0 0 4 2 5 5 7 2 7 5 1 4 5 5 1 2 8 2 1 8 4 3 3 2 3 8 9 4 5 5 2 2 2 7 9 10 5 10 5 2 5 4 3 4 6 2 5 10 5 2 1 4 5 7 5 5 8 10 17 17 17 20 22 20 21 22 22 23
3 5 4 1 3 2 1 4 3 5 1 6 9 9 10 13 1 1 1 1 1 2 3 1 7 4 3 5 3 3 6 1 4 4 5 4 5 8 6 4 5 7 3 1 4 2 9 10 4 3 4 1 2 1 1 4 6 4 2 1 2 1 1 6 2 5 10 12 17 1 1 5 5 1 7 14 14 17 19 18 15 18 20 20 18 21 25 27
5 6 5 1 2 0 3 4 4 3 5 9 13 8 12 1 1 1 2 3 3 2 1 3 3 3 6 4 2 3 1 3 3 3 7 6 6 2 6 6 6 3 0 3 1 1 2 5 12 2 7 1 4 1 1 1 3 1 2 3 5 3 4 4 6 4 5 10 12 4 4 2 3 3 15 18 23 26 23 22 24 25 22 20 20 21 20 22
2 1 2 3 4 5 3 3 4 2 7 10 14 12 7 1 1 1 1 1 0 2 8 5 3 7 3 5 1 5 7 2 6 3 2 3 0 2 1 1 3 3 3 1 1 1 3 4 5 12 2 3 1 2 2 1 2 2 1 3 2 2 5 3 5 2 3 2 10 0 8 4 5 5 23 25 24 25 23 23 23 22 22 22 21 21 21 20
2 3 7 4 5 6 0 5 5 5 10 12 14 5 2 1 2 1 1 0 1 0 1 5 5 4 3 4 3 6 6 2 2 3 4 1 1 0 2 2 1 2 1 1 5 2 0 9 10 2 11 2 0 1 2 1 2 2 3 6 2 3 2 2 3 4 3 4 9 3 10 10 9 8 18 27 25 25 22 21 21 21 22 22 19 18 19 19
1 2 1 6 6 5 1 2 4 6 6 17 10 8 0 2 0 1 0 0 1 0 4 3 0 5 0 1 7 5 8 6 10 4 1 3 1 0 1 1 2 4 1 1 1 4 1 7 7 4 5 8 4 1 4 1 0 4 4 0 3 4 6 3 2 4 6 7 8 8 10 3 7 6 15 21 20 23 24 22 23 25 24 21 20 20 19 20
2 3 3 4 8 6 1 2 11 5 14 13 1 8 0 1 0 1 5 4 0 1 3 1 0 1 1 1 2 1 3 3 3 3 3 2 4 1 2 1 2 2 3 1 0 2 1 2 8 2 0 5 5 4 11 7 3 1 0 4 1 2 7 2 5 3 3 11 3 8 7 0 2 4 5 10 14 17 20 22 20 22 20 19 19 19 19 19
3 3 3 4 9 5 5 7 11 10 11 11 1 3 1 1 1 1 1 0 0 1 1 1 0 2 3 1 1 2 2 1 1 2 2 1 1 2 2 1 1 7 4 1 1 0 2 1 5 8 3 3 8 2 6 4 8 7 4 3 3 2 3 3 2 2 5 6 4 3 7 2 4 1 6 12 11 13 15 17 17 19 19 19 19 18 17 18
0 4 2 5 12 6 3 16 15 12 9 0 3 3 1 0 0 0 3 3 0 2 0 1 1 2 1 4 3 0 1 1 1 1 0 2 1 4 0 0 2 5 3 1 2 1 1 0 4 9 11 6 7 5 5 5 2 2 3 5 6 4 9 7 14 0 1 2 5 2 12 3 4 3 5 10 9 13 13 14 16 19 17 20 17 20 18 16
6 4 3 8 14 4 11 13 5 1 6 5 1 0 1 2 1 3 2 2 2 2 1 3 1 1 1 0 1 2 2 3 1 1 1 1 1 1 2 4 3 0 0 1 0 2 1 1 1 9 8 11 13 18 3 1 2 5 6 6 2 1 2 1 11 8 4 6 2 6 8 5 6 1 5 10 9 13 13 15 15 18 18 20 20 19 18 16
5 2 2 6 6 8 17 9 4 7 5 0 1 2 1 2 2 1 4 3 2 0 1 3 1 1 0 0 1 1 0 2 0 1 2 1 2 5 5 5 4 4 0 3 0 1 4 1 2 9 10 8 10 12 2 1 3 0 3 2 0 4 4 7 9 6 7 12 7 5 5 4 6 3 7 10 9 11 12 15 17 14 14 16 20 18 18 18
3 3 5 7 5 3 12 7 3 2 3 0 3 2 2 1 2 4 3 2 2 3 1 1 2 1 1 0 0 2 2 2 1 1 4 0 3 2 3 4 3 1 1 1 1 2 2 3 2 7 8 14 16 3 4 2 1 1 6 4 3 3 3 3 3 1 4 11 10 8 14 0 7 12 16 24 24 25 23 21 17 14 15 16 17 17 14 15
3 1 3 8 13 12 7 3 9 8 1 3 2 6 4 3 3 1 1 2 1 0 0 1 1 1 1 0 1 0 1 1 3 1 0 2 4 1 5 2 2 1 1 3 2 2 1 5 1 3 7 13 15 16 17 19 16 10 6 12 11 6 7 8 8 5 10 2 7 1 6 7 12 17 22 23 23 27 27 25 23 18 15 18 17 19 17 14
1 5 6 8 10 10 7 2 6 7 6 2 5 1 2 2 1 3 3 0 0 0 1 1 1 1 2 4 4 2 2 1 1 3 3 4 3 2 3 2 3 2 1 4 1 1 1 1 3 7 6 8 12 12 12 7 9 13 19 17 16 13 5 3 5 6 7 5 9 2 9 12 14 19 20 20 19 20 21 20 21 24 24 23 21 19 18 14
1 6 1 1 2 10 5 6 4 4 2 1 4 1 7 1 1 1 1 1 1 1 1 3 2 5 4 5 4 3 2 5 2 1 2 4 4 4 4 1 1 1 3 1 2 0 1 3 7 10 11 14 14 16 16 9 11 14 14 14 14 15 11 8 5 6 10 8 9 5 15 12 13 15 19 21 21 20 20 23 24 22 23 21 21 21 22 18
6 1 1 1 4 1 7 6 5 7 4 4 2 1 2 3 5 2 3 1 1 1 1 1 6 3 0 0 0 1 6 5 2 3 5 1 3 7 8 2 3 5 3 1 0 1 0 2 8 6 11 9 12 14 14 10 6 4 10 11 11 11 14 11 7 8 8 2 7 11 13 14 15 14 18 16 16 16 17 20 18 19 18 19 20 20 19 16
5 2 2 0 5 1 2 2 3 8 10 5 2 5 3 4 4 0 0 5 3 4 4 2 6 7 4 2 1 1 1 5 5 3 1 5 2 6 4 3 1 4 4 1 1 1 0 6 6 4 13 9 8 11 9 6 3 5 9 11 8 11 10 9 8 8 6 2 7 12 14 13 9 10 13 15 16 16 16 18 17 18 18 20 19 18 16 16
1 2 2 5 6 5 1 2 2 7 9 3 5 3 1 1 2 3 1 2 2 3 1 2 6 7 4 1 1 1 2 3 6 5 1 2 10 2 3 4 3 3 5 2 1 1 2 9 6 6 9 16 11 7 3 1 1 6 9 10 11 11 11 13 11 6 7 9 11 15 14 13 9 7 11 16 14 15 18 20 19 17 18 20 18 15 15 17
2 2 6 8 8 4 3 4 4 5 5 8 6 1 3 2 1 0 0 0 1 1 1 2 4 7 0 1 3 4 5 4 6 12 8 3 7 3 0 3 4 7 6 5 2 3 1 6 3 5 11 16 12 15 18 16 5 13 13 16 17 19 18 18 14 8 6 8 12 13 12 14 14 18 20 20 22 23 25 24 22 20 22 21 17 16 17 19
3 0 6 8 7 2 4 1 1 5 5 1 1 1 1 1 1 0 1 2 1 1 2 2 2 0 4 4 8 6 5 5 10 8 5 6 6 7 4 6 1 0 6 3 1 1 1 1 5 4 10 14 17 15 21 16 6 2 11 14 12 12 14 16 15 10 9 7 7 7 11 11 14 17 20 20 19 22 23 22 22 23 23 20 17 17 19 19
Wind_Direction
293 295 302 304 305 305 302 303 304 310 316 321 321 320 318 317 316 313 309 307 302 303 311 317 321 317 326 342 342 340 345 64 26 25 42 227 232 268 292 300 303 309 316 335 349 36 342 360 357 348 10 47 304 45 239 67 94 62 153 149 279 219 200 226 205 192 219 274 273 244 217 188 261 278 252 79 247 228 273 252 275 292 263 215 271 319 127 151
298 304 304 308 307 304 304 307 314 316 318 317 315 311 310 312 313 312 312 311 310 314 320 321 316 315 323 339 347 337 2 62 66 50 59 267 267 275 285 294 301 302 306 33 36 52 30 344 342 10 21 5 303 330 11 267 84 122 131 110 240 197 235 166 207 222 190 246 243 236 219 192 237 141 266 199 268 241 261 255 232 269 273 268 269 290 132 155
303 308 309 307 307 307 311 314 316 316 315 310 308 305 303 303 302 300 297 295 301 305 309 307 312 319 328 349 314 331 2 27 42 357 299 304 268 281 283 277 277 295 38 315 279 92 237 296 332 7 345 340 330 282 30 283 38 241 129 249 242 215 236 232 205 227 211 257 282 264 258 187 244 170 45 221 256 303 239 243 243 236 251 247 214 194 177 170
307 307 309 310 310 313 316 318 319 317 312 311 307 306 304 301 297 293 291 292 296 302 304 318 328 330 336 329 309 332 79 59 36 284 270 297 299 292 276 254 232 234 58 164 168 57 209 46 68 115 353 16 300 7 91 297 76 290 97 204 235 236 314 265 195 227 233 188 256 218 287 229 254 218 168 236 312 260 248 231 211 222 232 240 198 195 187 189
312 313 314 313 315 319 321 323 319 315 311 309 309 304 302 299 297 294 294 292 296 307 324 331 340 6 8 6 321 50 72 52 276 248 261 321 325 304 280 236 177 93 225 251 105 98 38 56 43 46 80 291 339 17 231 331 164 115 213 210 197 13 250 254 216 220 227 199 225 266 260 235 280 144 226 177 226 258 224 233 213 231 238 238 206 203 190 194
315 313 312 315 317 319 323 321 316 313 312 309 306 303 301 296 294 294 293 295 305 322 333 349 352 358 333 320 8 75 76 61 309 315 320 325 330 327 341 320 150 93 70 36 51 342 36 352 39 27 6 51 306 13 268 294 99 292 310 279 228 225 252 271 215 250 187 282 207 246 230 293 236 267 228 203 223 244 231 198 199 220 234 235 225 182 201 202
310 311 310 314 319 322 321 318 312 310 307 306 303 302 298 297 293 290 289 291 301 311 257 149 333 230 286 76 56 75 86 241 6 283 317 334 327 335 344 13 99 32 41 32 11 27 20 14 46 274 74 9 312 225 275 318 352 189 254 354 298 189 229 243 257 242 231 204 244 211 339 274 289 294 232 228 246 244 263 240 231 228 233 244 231 196 202 205
307 308 311 315 320 321 317 311 308 306 303 301 299 296 296 290 289 284 279 275 273 223 196 198 222 213 333 56 49 13 41 294 282 273 312 340 331 328 356 120 35 41 46 34 295 2 23 55 13 165 55 114 240 78 318 350 355 180 268 311 275 345 252 281 265 275 257 246 252 295 280 259 194 239 343 272 267 260 256 253 252 250 260 255 228 222 212 214
304 306 311 316 319 317 310 304 301 299 296 293 293 291 287 285 285 284 281 265 244 197 159 143 189 176 259 86 104 48 321 239 227 287 339 336 326 339 30 9 6 59 99 38 49 176 140 289 13 71 276 347 273 345 339 36 321 46 236 309 289 286 298 284 296 260 257 268 254 300 267 281 252 278 260 255 268 272 280 247 239 239 247 246 237 229 210 214
303 305 306 314 313 307 302 297 296 295 293 294 292 290 291 294 287 285 276 260 166 109 124 170 166 150 67 76 44 58 268 234 283 282 340 336 333 7 15 342 22 44 40 349 47 49 62 232 123 238 197 71 42 67 224 104 241 173 272 268 280 289 323 284 228 273 285 226 250 266 284 283 305 21 289 272 249 320 309 277 266 232 241 243 238 237 230 220
298 300 303 307 304 299 297 296 295 296 300 300 299 297 296 297 287 265 261 263 213 107 132 150 170 135 55 82 93 81 241 41 290 333 325 331 355 17 328 332 335 59 85 19 79 147 134 187 208 23 88 222 12 309 30 235 10 288 271 299 314 318 274 270 293 282 313 306 208 219 265 263 293 146 242 264 275 40 332 300 294 258 249 248 243 238 237 227
294 293 302 305 300 298 297 298 300 301 305 303 301 299 302 297 286 256 266 276 192 140 148 160 183 104 74 74 80 86 264 224 338 307 328 343 332 282 232 196 73 97 75 39 346 290 234 131 104 65 272 336 299 280 359 287 21 264 40 351 313 348 353 350 345 320 165 262 163 187 291 321 242 221 240 256 286 329 324 290 287 280 262 257 259 252 240 232
288 297 306 303 299 298 300 304 305 305 306 305 300 298 304 306 297 286 259 314 165 139 143 143 93 84 82 35 309 255 282 293 323 320 327 343 303 203 147 132 81 118 126 103 350 339 117 149 100 77 238 109 225 51 225 110 291 309 17 43 344 348 340 286 354 5 26 257 10 325 328 306 261 241 259 277 301 326 308 282 279 280 270 259 256 258 257 251
292 305 307 302 299 303 306 307 309 311 310 309 305 307 308 312 314 302 285 251 168 142 137 160 110 73 81 210 265 268 292 218 330 6 333 319 22 318 342 354 60 125 145 110 232 174 108 85 92 120 109 77 324 293 27 340 20 345 286 65 46 349 297 294 352 296 328 286 15 81 257 290 294 294 271 251 298 309 290 290 287 280 275 272 264 257 253 254
298 302 302 300 302 306 312 315 318 314 312 320 321 319 316 311 308 301 306 329 2 171 134 111 45 53 51 284 268 274 258 77 4 317 303 2 8 334 341 343 338 348 296 146 352 121 125 81 64 36 328 36 20 43 354 13 9 4 43 325 326 65 283 310 331 185 256 315 47 43 230 256 286 291 300 291 243 298 294 290 289 285 281 276 268 257 254 255
297 299 298 302 305 309 316 317 314 315 321 329 328 318 309 313 301 284 269 247 315 56 168 53 345 113 101 27 285 8 37 22 333 309 285 47 19 273 273 292 290 349 25 327 81 72 39 86 74 149 7 360 36 47 14 28 340 4 62 290 312 319 295 333 320 308 282 304 311 174 267 308 295 296 306 308 308 290 278 288 288 288 288 284 269 258 257 264
295 298 298 302 307 314 312 313 323 327 326 326 327 313 321 339 342 307 265 348 320 318 63 165 58 71 90 255 333 23 314 287 287 340 327 300 243 240 0 10 340 343 342 347 14 43 332 55 274 19 41 77 299 53 47 19 338 320 36 337 238 290 324 314 298 348 17 11 300 6 236 254 268 291 298 306 320 315 299 287 294 301 302 298 282 268 263 262
294 294 298 304 308 312 313 326 337 333 322 322 320 289 309 325 353 34 4 16 20 68 69 87 99 60 330 5 23 305 304 293 334 300 316 319 104 83 95 336 330 317 15 23 360 49 351 30 28 122 10 16 22 29 57 344 296 293 331 341 326 292 263 257 322 308 21 4 259 303 269 274 286 296 302 306 325 318 311 312 304 303 316 321 317 301 273 259
288 293 302 306 308 312 323 332 325 330 330 314 324 325 238 326 28 64 58 351 39 355 25 337 29 74 102 301 291 290 292 249 297 14 332 348 339 28 328 235 48 38 11 42 295 42 350 42 28 44 15 351 351 75 97 234 176 243 249 272 276 321 315 309 264 296 32 327 308 290 278 299 302 305 306 319 333 329 313 324 330 335 333 328 331 319 314 287
290 298 302 307 305 313 327 336 328 331 339 358 8 14 12 18 5 346 344 35 71 114 149 187 242 207 322 329 329 294 279 7 37 271 322 323 339 2 39 68 8 55 51 19 309 24 105 64 46 345 305 284 271 215 215 236 189 259 221 220 291 287 274 266 275 253 343 336 249 267 278 288 290 290 294 306 326 337 352 353 339 360 357 343 351 8 360 359
293 302 307 307 312 327 335 333 316 328 355 88 71 58 98 163 72 52 330 337 219 251 46 354 162 210 132 266 300 360 10 326 161 338 348 300 145 57 343 23 17 28 350 286 197 315 66 53 9 270 236 253 272 269 202 351 162 234 284 297 302 299 298 296 285 314 359 49 290 38 323 306 301 304 301 313 344 355 343 331 337 360 14 9 23 25 11 322
294 300 307 311 322 329 320 322 325 352 60 75 74 95 140 184 128 162 100 55 32 32 50 311 339 355 325 248 261 141 134 10 6 357 340 27 344 59 321 74 71 39 321 347 25 20 34 49 307 277 240 288 332 43 316 202 1 337 348 303 330 309 264 284 301 293 330 8 261 340 342 298 299 301 296 329 338 290 340 331 306 345 45 21 23 20 346 1
294 297 299 315 313 328 324 324 341 23 41 38 71 85 101 324 314 270 112 111 95 311 47 20 5 12 350 304 308 71 43 41 316 343 349 8 358 82 42 40 14 292 6 27 77 34 34 333 304 273 13 352 349 20 35 15 123 54 339 32 329 276 25 324 248 9 327 258 284 309 284 285 312 314 298 230 337 292 313 343 333 350 26 74 63 344 5 10
297 302 306 317 328 335 311 319 338 43 37 111 82 103 253 327 355 84 85 89 89 6 88 318 112 6 3 12 330 55 66 317 53 341 342 25 12 291 68 37 8 36 11 330 120 101 137 280 292 54 25 49 14 338 43 16 350 331 199 251 298 323 315 181 293 326 286 324 168 334 339 315 317 4 329 324 336 345 337 348 332 334 310 290 306 310 306 329
301 307 316 321 332 312 296 345 45 72 172 50 55 204 334 344 44 16 103 356 18 342 145 168 93 41 324 296 342 27 274 181 10 230 275 40 336 27 331 207 86 0 343 123 78 64 355 280 211 347 44 41 49 18 29 32 354 330 254 226 267 260 280 277 282 318 8 343 18 29 7 303 278 303 250 298 340 334 315 360 321 314 309 309 307 311 309 292
287 293 307 313 309 308 300 39 16 158 117 84 239 312 343 323 317 15 95 76 65 287 357 20 18 351 168 344 11 321 63 55 279 288 18 339 217 114 15 19 64 359 333 54 105 130 155 335 54 323 70 21 40 51 258 95 337 29 303 191 250 283 272 287 311 15 358 7 287 44 110 292 333 322 285 288 318 299 305 325 296 302 307 317 302 289 288 283
279 288 294 306 326 319 18 260 177 117 39 327 245 264 321 175 71 135 60 351 57 325 8 268 38 308 54 329 332 71 39 303 305 357 7 1 18 339 95 325 4 301 171 109 46 317 356 334 19 45 41 26 8 6 300 88 52 307 234 146 294 309 310 302 333 175 241 253 303 42 124 243 310 294 266 319 285 283 304 302 304 302 299 297 299 296 295 288
279 284 287 342 13 49 181 126 40 87 191 213 260 288 262 226 267 4 79 59 8 349 15 326 23 328 63 320 20 74 176 299 20 325 11 302 32 359 80 30 110 4 336 74 87 259 75 326 8 346 38 18 356 281 281 142 204 248 271 322 297 279 275 234 162 212 244 35 305 343 298 23 259 268 301 1 336 320 306 300 291 288 286 285 289 287 282 272
267 255 287 54 71 67 81 99 109 109 227 223 297 284 289 43 109 98 120 95 281 52 213 341 305 25 343 357 35 20 329 9 98 301 323 341 23 180 36 13 182 212 358 100 107 309 300 177 267 118 87 357 280 285 231 175 338 281 279 281 286 51 85 159 129 108 339 64 273 274 288 3 282 284 306 7 303 289 291 301 290 279 273 275 276 277 283 290
268 244 260 79 86 29 17 37 65 208 52 197 293 301 73 46 46 45 19 58 297 343 351 270 55 310 17 10 336 5 20 344 32 307 20 65 327 16 81 109 81 77 6 8 97 215 275 313 183 100 188 221 290 285 193 193 218 304 22 347 359 36 29 32 59 64 45 351 256 220 273 126 302 277 261 293 278 316 310 309 298 299 307 288 269 270 286 288
200 209 127 105 83 211 112 40 245 204 167 187 282 49 56 35 85 113 71 248 24 289 2 12 331 15 18 27 343 333 7 335 343 29 353 350 4 34 69 12 25 47 29 359 11 341 352 329 17 263 204 316 160 308 331 330 303 45 16 340 327 343 4 24 348 34 64 290 271 208 165 123 255 293 291 225 274 321 274 285 294 298 306 313 316 328 322 307
160 124 120 92 151 107 90 252 184 140 155 201 74 59 60 33 17 64 265 309 57 315 62 305 300 348 1 326 38 341 334 325 353 31 24 17 23 29 5 51 331 5 9 15 335 354 360 247 286 323 244 142 314 348 315 2 0 18 6 18 43 313 19 333 9 354 273 263 271 171 33 359 226 221 265 312 311 323 323 299 309 320 328 335 340 343 337 320
106 107 95 92 104 38 26 145 112 132 97 86 69 58 64 92 59 298 297 329 113 53 295 149 268 359 303 30 355 324 261 41 322 20 28 352 70 47 18 57 344 94 331 320 332 6 292 295 338 297 52 226 66 32 330 351 350 8 19 38 49 12 20 299 284 221 288 282 251 106 162 244 267 297 254 269 331 5 1 1 9 2 346 338 348 351 350 337
272 245 64 15 93 120 155 111 125 145 91 52 75 52 70 61 91 98 74 276 293 325 321 10 317 339 29 65 322 334 354 271 19 336 43 346 47 24 340 4 42 5 64 345 58 334 8 345 313 25 348 341 43 179 247 237 298 287 212 130 185 139 269 305 248 295 288 279 302 21 24 230 336 254 5 19 15 19 18 19 20 21 13 6 7 6 4 0
86 79 105 52 46 12 132 137 126 116 81 80 50 71 88 173 224 234 289 296 304 312 289 335 345 38 337 13 306 351 122 302 30 20 19 39 9 35 350 332 342 72 128 58 298 54 276 250 262 252 245 30 303 274 108 5 331 289 197 94 48 231 109 218 217 202 275 310 315 316 216 210 273 339 32 15 16 16 8 13 13 11 9 7 10 9 5 4
75 339 71 29 30 356 132 104 131 79 82 79 77 50 74 162 155 138 234 153 316 7 312 346 54 31 326 319 305 29 314 50 322 48 351 66 261 38 299 246 0 17 46 58 223 344 23 302 274 324 28 170 203 88 290 115 5 285 21 293 253 207 150 282 327 249 345 340 251 134 301 322 305 43 26 10 13 12 8 5 7 3 2 5 8 2 0 358
15 354 40 327 8 343 323 127 108 83 77 84 88 65 193 278 183 173 306 68 257 128 34 79 342 46 339 322 289 338 319 24 337 61 341 326 15 30 351 308 184 26 35 134 314 201 174 281 298 87 302 320 99 242 282 255 219 35 335 265 253 107 125 126 255 328 337 262 278 47 285 333 9 320 6 2 4 2 9 1 356 358 1 6 2 357 355 353
66 52 119 32 328 321 355 175 92 38 75 75 62 132 255 93 358 175 240 52 45 277 75 81 268 94 289 2 323 338 323 73 326 31 312 357 306 141 91 317 313 89 352 321 144 296 148 311 292 246 228 280 336 43 334 351 134 205 245 257 20 325 348 319 79 310 318 288 278 304 301 57 43 347 356 1 360 354 356 356 358 358 357 355 354 351 351 354
62 75 27 332 342 358 310 131 60 52 72 67 41 90 300 101 153 179 195 146 164 100 77 321 153 346 130 79 273 299 339 18 322 2 51 340 27 102 90 160 298 108 26 154 234 266 4 307 297 296 148 294 332 55 337 304 325 356 327 326 284 146 224 293 207 209 146 274 350 292 324 276 334 25 331 343 1 354 353 355 355 350 349 349 348 349 347 351
23 51 5 326 355 351 339 59 61 46 64 81 169 81 194 94 255 269 209 137 254 79 43 34 11 1 1 269 71 344 304 33 355 287 64 264 325 305 67 269 242 316 25 300 172 133 316 146 267 281 301 357 346 334 301 295 308 326 10 308 346 279 225 165 288 184 249 254 222 289 298 108 287 336 352 358 359 354 352 349 347 347 344 346 346 346 345 345
92 97 267 317 343 329 16 44 39 29 82 217 83 141 2 170 323 327 2 7 268 329 73 139 107 54 282 8 349 24 301 333 334 324 214 299 72 330 184 183 144 323 356 29 54 344 11 341 243 314 336 345 273 225 226 261 183 217 181 245 228 299 323 332 289 15 299 277 256 279 272 134 279 206 340 360 350 349 350 344 339 344 342 347 344 343 344 344
70 50 292 327 336 51 79 61 7 101 87 52 79 87 112 64 55 7 39 19 102 28 19 104 57 95 68 281 226 315 348 306 273 17 275 153 271 173 304 114 122 185 84 300 14 276 140 199 169 288 256 275 282 282 280 186 176 205 161 252 172 172 111 208 280 285 328 235 159 232 293 217 211 185 349 357 350 343 344 344 342 340 344 345 343 340 339 340
50 102 254 326 333 63 78 46 335 39 59 159 213 32 34 47 81 325 50 350 15 56 350 50 310 20 190 296 345 325 71 282 191 287 261 268 263 222 200 159 143 56 97 304 21 233 81 71 349 270 277 253 248 274 22 139 156 328 272 217 97 266 222 235 236 264 275 285 294 301 237 214 184 49 352 349 334 330 338 354 343 332 337 340 341 338 336 340
152 73 346 341 16 99 76 109 91 19 83 348 62 72 36 103 60 5 25 331 55 358 63 350 317 89 296 108 133 333 326 2 271 9 335 51 276 56 169 109 180 160 131 282 86 292 12 279 105 316 336 324 329 338 315 165 84 226 282 263 177 272 328 263 298 81 261 262 266 272 269 46 336 357 351 351 350 347 343 339 344 336 342 340 338 334 331 333
87 340 29 327 8 49 90 179 121 130 114 84 71 27 351 31 37 127 114 21 310 153 114 360 194 267 347 305 333 296 301 107 307 301 26 246 259 351 301 153 211 189 194 255 251 315 196 250 100 320 318 323 322 329 327 326 324 318 299 308 315 0 310 349 308 305 280 305 18 259 288 338 334 352 351 349 347 342 338 337 339 338 337 337 330 334 328 326
34 82 307 3 17 39 65 57 88 112 115 90 51 333 75 68 356 330 21 143 185 295 108 263 305 114 9 22 14 354 330 323 156 293 17 305 297 318 209 196 177 214 197 195 273 101 231 281 198 182 181 230 256 269 281 303 319 311 300 312 330 344 318 254 278 279 275 318 307 63 328 324 333 354 348 337 339 332 327 326 327 331 333 334 329 327 326 321
110 75 49 19 343 42 49 23 37 46 91 150 90 10 20 5 255 354 196 75 11 72 4 68 356 39 332 35 7 320 280 320 327 342 236 284 262 258 293 165 342 275 239 287 237 51 42 311 239 217 219 230 247 269 287 316 296 293 316 337 356 2 4 30 50 321 307 292 287 49 340 326 326 341 339 334 333 326 323 326 327 327 330 329 325 319 318 321
74 219 79 207 112 41 36 8 45 66 16 75 94 88 38 25 17 37 323 38 304 328 87 305 48 75 190 162 26 343 335 322 321 291 328 254 327 316 338 352 29 317 322 329 185 128 102 273 288 140 252 222 263 275 282 291 277 315 19 3 11 20 25 34 351 346 1 324 299 324 319 311 317 329 325 321 320 311 306 314 313 315 317 318 316 316 314 319
108 137 130 358 81 211 119 167 85 84 53 47 97 60 38 63 64 238 168 318 20 354 34 36 327 336 323 266 163 282 315 8 323 276 182 301 346 325 327 332 102 14 32 337 305 175 53 242 273 214 292 296 270 258 264 274 293 53 25 10 8 17 15 4 336 341 346 9 323 318 324 303 329 306 311 319 313 304 306 313 313 318 320 319 315 311 312 320
119 110 42 8 82 107 57 49 69 54 62 9 87 342 110 26 40 337 11 55 1 328 13 62 313 323 324 211 186 305 252 215 242 284 268 29 309 144 253 200 284 333 26 325 20 285 87 282 359 330 325 311 317 307 322 162 303 78 31 14 20 15 0 355 334 314 315 287 308 324 321 324 327 295 303 315 311 308 310 315 320 321 321 320 314 308 313 317
174 155 151 110 61 348 16 30 49 70 63 355 68 322 78 332 141 237 191 250 118 330 5 299 292 309 302 346 240 239 248 234 242 236 241 249 259 231 120 297 77 316 353 348 6 327 55 270 13 4 335 308 322 329 325 332 53 86 40 23 18 13 7 344 324 298 300 286 302 317 337 331 319 331 325 327 328 328 324 322 323 326 324 318 312 310 317 318
85 287 81 104 84 312 60 339 29 70 37 273 145 293 114 337 229 150 58 216 218 218 211 227 261 284 290 1 336 311 276 235 253 253 232 246 257 278 262 271 2 238 313 298 225 297 217 351 328 335 321 293 313 327 320 324 305 49 23 19 1 353 340 326 321 305 242 265 271 333 309 299 312 324 324 325 326 322 319 320 323 323 316 310 306 312 314 315